Tracking 31027 objects as of 19-Jul-2025
HD Live streaming from Space Station
objects crossing your sky now

STARLINK-3102

Track STARLINK-3102 now!
10-day predictions
STARLINK-3102 is classified as:


NORAD ID: 49151
Int'l Code: 2021-082X
Perigee: 577.2 km
Apogee: 581.2 km
Inclination: 70.0 °
Period: 96.1 minutes
Semi major axis: 6950 km
RCS: Unknown
Launch date: September 14, 2021
Source: United States (US)
Launch site: AIR FORCE WESTERN TEST RANGE (AFWTR)
Your satellite tracking list
THORAD DELTA 1 DEB
Track 1 satellite(s)




NASA's NSSDC Master Catalog

Two Line Element Set (TLE):
1 49151U 21082X   25199.51534931 -.00000041  00000-0  43383-5 0  9992
2 49151  70.0006 124.8854 0002942 266.3675  93.7147 14.98328896213082
Source of the keplerian elements: AFSPC